Home > Weather > Conakry > Past weeks

Flag for Guinea Past Weather in Conakry, Guinea — Yesterday and Last 2 Weeks

Now
79 °F

Broken clouds.


Feels Like: 83 °F
Forecast: 76 / 84 °F
Wind: 3 mph from East

Location: Conakry / Gbessia

Current Time: Jun 30, 2016 at 10:29:09 AM

Latest Report: Jun 30, 2016 at 9:00 AM


Visibility: N/A

Pressure: 30.01 "Hg

Humidity: 94%

Dew Point: 77 °F

Location of ConakryLocation

Past Weather in Conakry — Graph

°F

Conakry Temperature Yesterday

Maximum temperature yesterday: 84 °F (at 1:00 PM)
Minimum temperature yesterday: 77 °F (at 7:00 AM)
Average temperature yesterday: 80 °F

High & Low Weather Summary for the Past Weeks

 TemperatureHumidityPressure
High86 °F (Jun 21, 1:00 PM)100% (Jun 17, 10:00 AM)30.04 "Hg (Jun 17, 10:00 AM)
Low72 °F (Jun 17, 10:00 AM)74% (Jun 25, 2:00 PM)29.86 "Hg (Jun 21, 4:00 PM)
Average79 °F90%29.95 "Hg
* Reported Jun 17 9:00 AM — Jun 30 8:00 AM, Conakry, Weather by CustomWeather, © 2016

Note: Actual official high and low records may vary slightly from our data, if they occured in-between our weather recording intervals... More about our weather records

Advertising

Conakry Weather History for the Previous 24 Hours

Scroll right to see more
 ConditionsComfort  
Time TempWeatherWind HumidityBarometerVisibility
8:00 AM
Thu, Jun 30
77 °FBroken clouds.No wind100%29.98 "HgN/A
7:00 AM75 °FBroken clouds.No wind100%29.98 "HgN/A
6:00 AM75 °FPartly cloudy.No wind100%29.95 "HgN/A
12:00 AM77 °FLight rain. Passing clouds.7 mph100%30.01 "Hg5 mi
11:00 PM
Wed, Jun 29
77 °FPassing clouds.No wind100%29.98 "HgN/A
10:00 PM77 °FLight rain. Passing clouds.5 mph100%29.98 "Hg5 mi
9:00 PM77 °FThunderstorms. Passing clouds.12 mph100%29.98 "Hg3 mi
7:00 PM81 °FThunderstorms. Broken clouds.9 mph84%29.95 "HgN/A
6:00 PM81 °FThunderstorms. Partly sunny.9 mph84%29.92 "HgN/A
5:00 PM82 °FThunderstorms. Broken clouds.12 mph79%29.89 "HgN/A
4:00 PM82 °FThunderstorms. Broken clouds.12 mph84%29.92 "HgN/A
3:00 PM82 °FThunderstorms. Partly sunny.7 mph84%29.92 "HgN/A
2:00 PM81 °FPartly sunny.5 mph100%29.95 "HgN/A
1:00 PM84 °FPartly sunny.7 mph79%29.95 "HgN/A
12:00 PM82 °FPartly sunny.2 mph84%29.98 "HgN/A
11:00 AM81 °FPartly sunny.7 mph84%29.98 "HgN/A
10:00 AM79 °FPartly sunny.9 mph89%29.98 "HgN/A
Weather by CustomWeather, © 2016

See weather overviewHow to use our weather pages